LNE1415 SEGU-SEGS

Flight info

Callsign LNE1415
Flight time 1h 44m
Altitude 36000
Route ASOSI3B ASOSI UW17 SCV
Aircraft A319/M-SDE3FGHIRWY/LB1

Departure

Time 2026-04-23 17:30
Airport José Joaquín de Olmedo International Airport (SEGU)

Arrival

Time 2026-04-23 19:15
Airport Seymour Galapagos Ecological Airport (SEGS)
Time Latitude Longitude Altitude Speed Heading
2026-04-23 16:31 -2.15016 -79.88423 29 ft 0 kts 300°
2026-04-23 17:23 -2.15022 -79.88412 29 ft 4 kts 296°
2026-04-23 17:23 -2.15034 -79.88361 29 ft 4 kts 259°
2026-04-23 17:24 -2.15024 -79.88337 29 ft 4 kts 224°
2026-04-23 17:24 -2.15016 -79.88330 29 ft 0 kts 210°
2026-04-23 17:27 -2.15062 -79.88356 29 ft 20 kts 209°
2026-04-23 17:27 -2.15181 -79.88366 29 ft 18 kts 128°
2026-04-23 17:27 -2.15255 -79.88238 28 ft 20 kts 120°
2026-04-23 17:28 -2.15369 -79.88261 27 ft 22 kts 210°
2026-04-23 17:28 -2.15542 -79.88359 28 ft 35 kts 210°
2026-04-23 17:28 -2.15771 -79.88492 28 ft 37 kts 210°
2026-04-23 17:28 -2.16003 -79.88624 28 ft 39 kts 210°
2026-04-23 17:29 -2.16240 -79.88762 28 ft 34 kts 210°
2026-04-23 17:29 -2.16345 -79.88739 28 ft 16 kts 96°
2026-04-23 17:29 -2.15885 -79.88447 27 ft 89 kts 30°
2026-04-23 17:30 -2.15449 -79.88196 28 ft 125 kts 30°
2026-04-23 17:30 -2.13405 -79.87052 552 ft 165 kts 31°
2026-04-23 17:30 -2.12303 -79.86430 774 ft 196 kts 31°
2026-04-23 17:31 -2.11045 -79.85721 1036 ft 220 kts 30°
2026-04-23 17:31 -2.09637 -79.84930 1361 ft 244 kts 28°
2026-04-23 17:31 -2.08104 -79.84073 1950 ft 258 kts 28°
2026-04-23 17:31 -2.06388 -79.83519 2743 ft 265 kts
2026-04-23 17:32 -2.04632 -79.84017 3575 ft 269 kts 325°
2026-04-23 17:32 -2.03452 -79.85450 4415 ft 273 kts 290°
2026-04-23 17:32 -2.03244 -79.87296 5209 ft 275 kts 262°
2026-04-23 17:32 -2.03681 -79.89217 6107 ft 277 kts 251°
2026-04-23 17:33 -2.04302 -79.91052 6910 ft 280 kts 249°
2026-04-23 17:33 -2.04938 -79.92904 7684 ft 283 kts 250°
2026-04-23 17:33 -2.05525 -79.94794 8451 ft 287 kts 253°
2026-04-23 17:33 -2.06052 -79.96729 9205 ft 290 kts 255°
2026-04-23 17:34 -2.06535 -79.98697 9950 ft 293 kts 256°
2026-04-23 17:34 -2.07005 -80.00740 10245 ft 313 kts 256°
2026-04-23 17:34 -2.07973 -80.05171 11009 ft 337 kts 257°
2026-04-23 17:35 -2.08468 -80.07467 11618 ft 340 kts 257°
2026-04-23 17:35 -2.09481 -80.12124 12863 ft 345 kts 257°
2026-04-23 17:35 -2.09996 -80.14479 13475 ft 348 kts 257°
2026-04-23 17:36 -2.10515 -80.16853 14034 ft 351 kts 257°
2026-04-23 17:36 -2.11038 -80.19250 14574 ft 354 kts 257°
2026-04-23 17:36 -2.11564 -80.21660 15095 ft 356 kts 257°
2026-04-23 17:36 -2.12095 -80.24092 15615 ft 359 kts 257°
2026-04-23 17:37 -2.12629 -80.26538 16133 ft 362 kts 257°
2026-04-23 17:37 -2.13166 -80.29004 16650 ft 364 kts 257°
2026-04-23 17:37 -2.14255 -80.33995 17668 ft 370 kts 257°
2026-04-23 17:38 -2.14808 -80.36521 18175 ft 373 kts 257°
2026-04-23 17:38 -2.15367 -80.39063 18609 ft 376 kts 257°
2026-04-23 17:38 -2.15932 -80.41626 19013 ft 380 kts 257°
2026-04-23 17:38 -2.16503 -80.44215 19427 ft 383 kts 258°
2026-04-23 17:39 -2.17077 -80.46830 19839 ft 387 kts 258°
2026-04-23 17:39 -2.17652 -80.49464 20251 ft 390 kts 258°
2026-04-23 17:39 -2.18230 -80.52128 20636 ft 394 kts 258°
2026-04-23 17:39 -2.18598 -80.54855 21012 ft 398 kts 265°
2026-04-23 17:40 -2.18830 -80.57623 21408 ft 401 kts 265°
2026-04-23 17:40 -2.19064 -80.60416 21773 ft 405 kts 265°
2026-04-23 17:40 -2.19303 -80.63237 22147 ft 410 kts 265°
2026-04-23 17:40 -2.19546 -80.66092 22526 ft 413 kts 265°
2026-04-23 17:41 -2.19791 -80.68966 22917 ft 417 kts 265°
2026-04-23 17:41 -2.20282 -80.74779 23658 ft 423 kts 265°
2026-04-23 17:41 -2.20530 -80.77724 23967 ft 426 kts 265°
2026-04-23 17:42 -2.21031 -80.83663 24622 ft 431 kts 265°
2026-04-23 17:42 -2.21285 -80.86654 24934 ft 433 kts 265°
2026-04-23 17:42 -2.21543 -80.89662 25237 ft 436 kts 265°
2026-04-23 17:43 -2.21803 -80.92689 25548 ft 438 kts 265°
2026-04-23 17:43 -2.22023 -80.95724 25842 ft 441 kts 269°
2026-04-23 17:43 -2.21838 -80.98787 26128 ft 443 kts 279°
2026-04-23 17:43 -2.21276 -81.01780 26413 ft 445 kts 281°
2026-04-23 17:44 -2.20690 -81.04827 26696 ft 448 kts 281°
2026-04-23 17:44 -2.20110 -81.07896 26971 ft 450 kts 281°
2026-04-23 17:44 -2.18949 -81.14083 27521 ft 455 kts 281°
2026-04-23 17:45 -2.18362 -81.17203 27790 ft 458 kts 281°
2026-04-23 17:45 -2.17170 -81.23496 28332 ft 463 kts 281°
2026-04-23 17:45 -2.16569 -81.26662 28598 ft 465 kts 281°
2026-04-23 17:46 -2.15356 -81.33055 29114 ft 470 kts 281°
2026-04-23 17:46 -2.14746 -81.36280 29372 ft 473 kts 281°
2026-04-23 17:46 -2.14134 -81.39518 29636 ft 475 kts 281°
2026-04-23 17:47 -2.13518 -81.42775 29900 ft 478 kts 281°
2026-04-23 17:47 -2.12901 -81.46043 30124 ft 480 kts 281°
2026-04-23 17:47 -2.11652 -81.52637 30559 ft 485 kts 281°
2026-04-23 17:48 -2.11020 -81.55955 30765 ft 487 kts 281°
2026-04-23 17:48 -2.10386 -81.59284 30977 ft 489 kts 281°
2026-04-23 17:48 -2.09751 -81.62625 31184 ft 491 kts 281°
2026-04-23 17:48 -2.09114 -81.65984 31391 ft 492 kts 281°
2026-04-23 17:49 -2.08479 -81.69345 31692 ft 492 kts 281°
2026-04-23 17:49 -2.07846 -81.72697 32016 ft 491 kts 281°
2026-04-23 17:49 -2.07211 -81.76053 32323 ft 491 kts 281°
2026-04-23 17:49 -2.06578 -81.79409 32630 ft 491 kts 281°
2026-04-23 17:50 -2.05944 -81.82758 32935 ft 491 kts 281°
2026-04-23 17:50 -2.04706 -81.89464 33560 ft 491 kts 280°
2026-04-23 17:50 -2.04198 -81.92833 33884 ft 491 kts 278°
2026-04-23 17:51 -2.03902 -81.95073 34080 ft 491 kts 277°
2026-04-23 17:51 -2.03493 -81.98461 34364 ft 490 kts 277°
2026-04-23 17:51 -2.02692 -82.05215 34927 ft 489 kts 278°
2026-04-23 17:52 -2.02119 -82.09682 35280 ft 489 kts 278°
2026-04-23 17:52 -2.01357 -82.15315 35727 ft 488 kts 278°
2026-04-23 17:52 -2.00893 -82.18679 35926 ft 488 kts 279°
2026-04-23 17:53 -1.99527 -82.28724 35975 ft 485 kts 278°
2026-04-23 17:54 -1.98637 -82.35359 35975 ft 485 kts 278°
2026-04-23 17:54 -1.97295 -82.45382 35973 ft 485 kts 279°
2026-04-23 17:55 -1.95945 -82.55412 35975 ft 485 kts 279°
2026-04-23 17:56 -1.95036 -82.62101 35976 ft 485 kts 279°
2026-04-23 17:56 -1.93695 -82.72129 35974 ft 485 kts 278°
2026-04-23 17:57 -1.92812 -82.78818 35973 ft 485 kts 279°
2026-04-23 17:58 -1.91471 -82.88842 35975 ft 485 kts 279°
2026-04-23 17:58 -1.90586 -82.95531 35973 ft 485 kts 279°
2026-04-23 17:59 -1.89694 -83.02216 35974 ft 485 kts 279°
2026-04-23 17:59 -1.88795 -83.08893 35982 ft 484 kts 279°
2026-04-23 18:00 -1.87892 -83.15565 35985 ft 484 kts 279°
2026-04-23 18:00 -1.87000 -83.22223 35990 ft 483 kts 278°
2026-04-23 18:01 -1.86113 -83.28877 35991 ft 483 kts 278°
2026-04-23 18:01 -1.85222 -83.35523 35991 ft 482 kts 278°
2026-04-23 18:02 -1.84334 -83.42169 35988 ft 482 kts 278°
2026-04-23 18:02 -1.83450 -83.48804 35988 ft 482 kts 278°
2026-04-23 18:03 -1.82564 -83.55400 35981 ft 482 kts 278°
2026-04-23 18:03 -1.81670 -83.62030 35988 ft 481 kts 278°
2026-04-23 18:04 -1.80778 -83.68658 35992 ft 481 kts 278°
2026-04-23 18:04 -1.79900 -83.75272 35988 ft 480 kts 278°
2026-04-23 18:05 -1.79014 -83.81890 35984 ft 480 kts 278°
2026-04-23 18:05 -1.78122 -83.88504 35982 ft 480 kts 278°
2026-04-23 18:06 -1.77229 -83.95110 35985 ft 479 kts 279°
2026-04-23 18:06 -1.76342 -84.01707 35987 ft 478 kts 278°
2026-04-23 18:07 -1.75459 -84.08297 35986 ft 478 kts 278°
2026-04-23 18:07 -1.74574 -84.14873 35980 ft 477 kts 278°
2026-04-23 18:08 -1.73839 -84.20336 35978 ft 477 kts 278°
2026-04-23 18:08 -1.72818 -84.27976 35976 ft 477 kts 278°
2026-04-23 18:09 -1.71940 -84.34553 35977 ft 477 kts 278°
2026-04-23 18:09 -1.71058 -84.41124 35976 ft 477 kts 279°
2026-04-23 18:10 -1.70173 -84.47691 35974 ft 477 kts 279°
2026-04-23 18:10 -1.69295 -84.54247 35970 ft 476 kts 278°
2026-04-23 18:11 -1.68416 -84.60811 35967 ft 476 kts 279°
2026-04-23 18:11 -1.67530 -84.67370 35964 ft 476 kts 278°
2026-04-23 18:12 -1.66651 -84.73927 35963 ft 476 kts 278°
2026-04-23 18:12 -1.65782 -84.80479 35961 ft 476 kts 278°
2026-04-23 18:13 -1.64901 -84.87029 35959 ft 475 kts 278°
2026-04-23 18:13 -1.64013 -84.93577 35957 ft 475 kts 278°
2026-04-23 18:14 -1.63124 -85.00123 35954 ft 475 kts 278°
2026-04-23 18:14 -1.62241 -85.06666 35955 ft 475 kts 278°
2026-04-23 18:15 -1.61369 -85.13163 35955 ft 475 kts 278°
2026-04-23 18:15 -1.60497 -85.19701 35954 ft 475 kts 278°
2026-04-23 18:16 -1.59623 -85.26241 35955 ft 475 kts 278°
2026-04-23 18:16 -1.58743 -85.32782 35953 ft 475 kts 278°
2026-04-23 18:17 -1.57435 -85.42588 35953 ft 475 kts 278°
2026-04-23 18:17 -1.56570 -85.49129 35955 ft 474 kts 278°
2026-04-23 18:18 -1.55694 -85.55654 35959 ft 474 kts 278°
2026-04-23 18:18 -1.54813 -85.62182 35961 ft 474 kts 278°
2026-04-23 18:19 -1.53931 -85.68711 35959 ft 474 kts 278°
2026-04-23 18:19 -1.53054 -85.75232 35959 ft 474 kts 278°
2026-04-23 18:20 -1.52182 -85.81759 35963 ft 474 kts 278°
2026-04-23 18:20 -1.51318 -85.88278 35972 ft 473 kts 278°
2026-04-23 18:21 -1.50445 -85.94788 35965 ft 472 kts 278°
2026-04-23 18:21 -1.49569 -86.01287 35967 ft 472 kts 278°
2026-04-23 18:22 -1.48687 -86.07784 35964 ft 472 kts 278°
2026-04-23 18:22 -1.47816 -86.14284 35960 ft 471 kts 278°
2026-04-23 18:23 -1.46518 -86.24019 35960 ft 471 kts 278°
2026-04-23 18:24 -1.45215 -86.33702 35965 ft 471 kts 278°
2026-04-23 18:25 -1.43900 -86.43421 35963 ft 471 kts 278°
2026-04-23 18:25 -1.43041 -86.49911 35963 ft 471 kts 278°
2026-04-23 18:26 -1.42182 -86.56397 35966 ft 471 kts 278°
2026-04-23 18:26 -1.41309 -86.62877 35973 ft 470 kts 278°
2026-04-23 18:27 -1.40431 -86.69355 35970 ft 470 kts 278°
2026-04-23 18:27 -1.39568 -86.75824 35970 ft 470 kts 278°
2026-04-23 18:28 -1.38705 -86.82291 35969 ft 469 kts 278°
2026-04-23 18:28 -1.37841 -86.88755 35969 ft 469 kts 278°
2026-04-23 18:29 -1.36975 -86.95220 35961 ft 469 kts 278°
2026-04-23 18:29 -1.36117 -87.01635 35976 ft 468 kts 278°
2026-04-23 18:30 -1.35254 -87.08072 35976 ft 467 kts 278°
2026-04-23 18:30 -1.34393 -87.14510 35979 ft 467 kts 278°
2026-04-23 18:31 -1.33530 -87.20932 35971 ft 466 kts 278°
2026-04-23 18:31 -1.32665 -87.27345 35963 ft 465 kts 278°
2026-04-23 18:32 -1.31799 -87.33752 35961 ft 465 kts 278°
2026-04-23 18:32 -1.30945 -87.40159 35971 ft 464 kts 278°
2026-04-23 18:33 -1.30093 -87.46556 35976 ft 464 kts 278°
2026-04-23 18:33 -1.29236 -87.52934 35971 ft 463 kts 278°
2026-04-23 18:34 -1.28375 -87.59317 35963 ft 463 kts 278°
2026-04-23 18:34 -1.27522 -87.65648 35965 ft 463 kts 278°
2026-04-23 18:35 -1.26670 -87.72024 35959 ft 463 kts 278°
2026-04-23 18:35 -1.25816 -87.78390 35962 ft 462 kts 278°
2026-04-23 18:36 -1.24964 -87.84766 35973 ft 462 kts 278°
2026-04-23 18:36 -1.24002 -87.91118 35973 ft 462 kts 281°
2026-04-23 18:37 -1.22802 -87.97364 35965 ft 462 kts 282°
2026-04-23 18:37 -1.21503 -88.03642 35965 ft 462 kts 282°
2026-04-23 18:38 -1.20239 -88.09927 35967 ft 462 kts 282°
2026-04-23 18:38 -1.19038 -88.16123 35790 ft 462 kts 281°
2026-04-23 18:38 -1.18433 -88.19273 35546 ft 460 kts 281°
2026-04-23 18:39 -1.17828 -88.22408 35313 ft 459 kts 281°
2026-04-23 18:39 -1.17224 -88.25535 35081 ft 457 kts 281°
2026-04-23 18:39 -1.16619 -88.28648 34848 ft 456 kts 281°
2026-04-23 18:39 -1.16017 -88.31748 34618 ft 454 kts 281°
2026-04-23 18:40 -1.15416 -88.34843 34383 ft 453 kts 281°
2026-04-23 18:40 -1.14814 -88.37925 34162 ft 451 kts 281°
2026-04-23 18:40 -1.14211 -88.40995 33934 ft 449 kts 281°
2026-04-23 18:40 -1.13611 -88.44052 33677 ft 447 kts 281°
2026-04-23 18:41 -1.13015 -88.47091 33421 ft 445 kts 281°
2026-04-23 18:41 -1.12423 -88.50115 33168 ft 443 kts 281°
2026-04-23 18:41 -1.11833 -88.53128 32916 ft 441 kts 281°
2026-04-23 18:41 -1.11248 -88.56126 32668 ft 439 kts 281°
2026-04-23 18:42 -1.10668 -88.59116 32421 ft 437 kts 281°
2026-04-23 18:42 -1.10093 -88.62093 32177 ft 436 kts 281°
2026-04-23 18:42 -1.09516 -88.65062 31935 ft 435 kts 281°
2026-04-23 18:42 -1.08936 -88.68021 31696 ft 433 kts 281°
2026-04-23 18:43 -1.08553 -88.69972 31538 ft 432 kts 281°
2026-04-23 18:43 -1.07976 -88.72917 31301 ft 431 kts 281°
2026-04-23 18:43 -1.07403 -88.75852 31067 ft 430 kts 281°
2026-04-23 18:43 -1.06833 -88.78781 30838 ft 429 kts 281°
2026-04-23 18:44 -1.06264 -88.81700 30605 ft 428 kts 281°
2026-04-23 18:44 -1.05696 -88.84612 30381 ft 426 kts 281°
2026-04-23 18:44 -1.05130 -88.87520 30156 ft 426 kts 281°
2026-04-23 18:44 -1.04564 -88.90419 29914 ft 425 kts 281°
2026-04-23 18:45 -1.03999 -88.93306 29643 ft 423 kts 281°
2026-04-23 18:45 -1.03441 -88.96169 29337 ft 418 kts 281°
2026-04-23 18:45 -1.02886 -88.99016 28915 ft 415 kts 281°
2026-04-23 18:45 -1.02337 -89.01839 28503 ft 413 kts 281°
2026-04-23 18:46 -1.01790 -89.04650 28100 ft 411 kts 281°
2026-04-23 18:46 -1.01246 -89.07443 27698 ft 409 kts 281°
2026-04-23 18:46 -1.00704 -89.10209 27282 ft 407 kts 281°
2026-04-23 18:46 -1.00266 -89.12438 26958 ft 406 kts 281°
2026-04-23 18:47 -0.99724 -89.15195 26550 ft 404 kts 281°
2026-04-23 18:47 -0.99196 -89.17905 26147 ft 402 kts 281°
2026-04-23 18:47 -0.98665 -89.20643 25736 ft 400 kts 281°
2026-04-23 18:47 -0.98137 -89.23367 25322 ft 399 kts 281°
2026-04-23 18:48 -0.97617 -89.26026 24892 ft 398 kts 281°
2026-04-23 18:48 -0.97087 -89.28733 24469 ft 397 kts 281°
2026-04-23 18:48 -0.96558 -89.31434 24035 ft 396 kts 281°
2026-04-23 18:48 -0.96029 -89.34127 23599 ft 395 kts 281°
2026-04-23 18:49 -0.95501 -89.36816 23108 ft 394 kts 281°
2026-04-23 18:49 -0.94976 -89.39495 22658 ft 392 kts 281°
2026-04-23 18:49 -0.94457 -89.42158 22218 ft 389 kts 281°
2026-04-23 18:49 -0.93938 -89.44832 21772 ft 385 kts 281°
2026-04-23 18:50 -0.93601 -89.46567 21490 ft 383 kts 281°
2026-04-23 18:50 -0.92930 -89.49999 20905 ft 378 kts 281°
2026-04-23 18:50 -0.92437 -89.52520 20482 ft 375 kts 281°
2026-04-23 18:50 -0.91942 -89.55066 20047 ft 371 kts 281°
2026-04-23 18:51 -0.91451 -89.57583 19618 ft 368 kts 281°
2026-04-23 18:51 -0.90855 -89.60058 19197 ft 365 kts 289°
2026-04-23 18:51 -0.89758 -89.62325 18783 ft 361 kts 302°
2026-04-23 18:51 -0.88186 -89.64265 18371 ft 359 kts 314°
2026-04-23 18:52 -0.86398 -89.65996 17923 ft 357 kts 315°
2026-04-23 18:52 -0.84627 -89.67714 17504 ft 353 kts 315°
2026-04-23 18:52 -0.82875 -89.69419 17103 ft 350 kts 315°
2026-04-23 18:52 -0.81140 -89.71112 16698 ft 346 kts 315°
2026-04-23 18:53 -0.79428 -89.72785 16298 ft 343 kts 315°
2026-04-23 18:53 -0.77730 -89.74441 15908 ft 339 kts 314°
2026-04-23 18:53 -0.76047 -89.76080 15518 ft 337 kts 315°
2026-04-23 18:53 -0.74376 -89.77707 15131 ft 334 kts 315°
2026-04-23 18:54 -0.72723 -89.79317 14756 ft 331 kts 315°
2026-04-23 18:54 -0.71113 -89.80881 14379 ft 328 kts 315°
2026-04-23 18:54 -0.69483 -89.82464 13995 ft 326 kts 315°
2026-04-23 18:54 -0.67867 -89.84034 13607 ft 323 kts 314°
2026-04-23 18:55 -0.66291 -89.85564 13217 ft 320 kts 315°
2026-04-23 18:55 -0.64705 -89.87104 12847 ft 317 kts 315°
2026-04-23 18:55 -0.63137 -89.88630 12485 ft 314 kts 314°
2026-04-23 18:55 -0.61584 -89.90145 12119 ft 311 kts 314°
2026-04-23 18:56 -0.60540 -89.91163 11876 ft 309 kts 315°
2026-04-23 18:56 -0.58511 -89.93138 11401 ft 307 kts 315°
2026-04-23 18:56 -0.56987 -89.94621 11039 ft 305 kts 314°
2026-04-23 18:56 -0.55472 -89.96095 10683 ft 303 kts 315°
2026-04-23 18:57 -0.53970 -89.97558 10325 ft 301 kts 314°
2026-04-23 18:57 -0.52473 -89.99017 9980 ft 300 kts 314°
2026-04-23 18:57 -0.50982 -90.00469 9664 ft 298 kts 315°
2026-04-23 18:57 -0.49501 -90.01909 9295 ft 297 kts 315°
2026-04-23 18:58 -0.48025 -90.03341 8939 ft 295 kts 315°
2026-04-23 18:58 -0.46558 -90.04768 8592 ft 293 kts 315°
2026-04-23 18:58 -0.45124 -90.06199 8247 ft 290 kts 309°
2026-04-23 18:58 -0.44170 -90.07938 7918 ft 285 kts 284°
2026-04-23 18:59 -0.43996 -90.09891 7585 ft 284 kts 266°
2026-04-23 18:59 -0.43871 -90.11837 7408 ft 279 kts 287°
2026-04-23 18:59 -0.42809 -90.13402 7263 ft 273 kts 322°
2026-04-23 18:59 -0.41078 -90.14126 6965 ft 276 kts 350°
2026-04-23 19:00 -0.39171 -90.14555 6659 ft 284 kts 336°
2026-04-23 19:00 -0.37434 -90.15502 6357 ft 286 kts 328°
2026-04-23 19:00 -0.35779 -90.16521 6044 ft 285 kts 327°
2026-04-23 19:00 -0.34098 -90.17563 5722 ft 285 kts 327°
2026-04-23 19:01 -0.32418 -90.18606 5410 ft 283 kts 326°
2026-04-23 19:01 -0.31027 -90.19957 5067 ft 279 kts 301°
2026-04-23 19:01 -0.30321 -90.21742 4708 ft 276 kts 278°
2026-04-23 19:01 -0.30352 -90.23631 4342 ft 273 kts 258°
2026-04-23 19:02 -0.30587 -90.24872 4098 ft 275 kts 257°
2026-04-23 19:02 -0.31079 -90.27400 3460 ft 276 kts 257°
2026-04-23 19:02 -0.31436 -90.29236 3232 ft 261 kts 257°
2026-04-23 19:02 -0.31767 -90.30953 3095 ft 243 kts 257°
2026-04-23 19:03 -0.32211 -90.32502 2981 ft 224 kts 236°
2026-04-23 19:03 -0.33266 -90.33549 2753 ft 211 kts 205°
2026-04-23 19:03 -0.34654 -90.33861 2439 ft 204 kts 173°
2026-04-23 19:03 -0.35978 -90.33417 2211 ft 203 kts 146°
2026-04-23 19:04 -0.37088 -90.32608 1938 ft 196 kts 144°
2026-04-23 19:04 -0.38078 -90.31891 1713 ft 182 kts 144°
2026-04-23 19:04 -0.39060 -90.31179 1479 ft 167 kts 143°
2026-04-23 19:04 -0.39952 -90.30531 1292 ft 148 kts 143°
2026-04-23 19:05 -0.40750 -90.29953 1084 ft 137 kts 143°
2026-04-23 19:05 -0.41504 -90.29402 902 ft 133 kts 144°
2026-04-23 19:05 -0.42246 -90.28863 723 ft 131 kts 145°
2026-04-23 19:05 -0.42981 -90.28330 586 ft 131 kts 144°
2026-04-23 19:06 -0.43715 -90.27795 336 ft 129 kts 144°
2026-04-23 19:06 -0.44440 -90.27267 206 ft 127 kts 146°
2026-04-23 19:06 -0.45088 -90.26800 194 ft 119 kts 147°
2026-04-23 19:06 -0.45820 -90.26265 544 ft 143 kts 144°
2026-04-23 19:07 -0.46597 -90.25531 1201 ft 162 kts 120°
2026-04-23 19:07 -0.46730 -90.24400 2049 ft 175 kts 78°
2026-04-23 19:07 -0.46056 -90.23351 2478 ft 191 kts 43°
2026-04-23 19:07 -0.44936 -90.22603 2716 ft 196 kts 30°
2026-04-23 19:08 -0.43591 -90.22379 2919 ft 203 kts 352°
2026-04-23 19:08 -0.42267 -90.22866 3000 ft 203 kts 334°
2026-04-23 19:08 -0.41016 -90.23494 2986 ft 199 kts 332°
2026-04-23 19:08 -0.39793 -90.24128 2658 ft 199 kts 332°
2026-04-23 19:09 -0.38567 -90.24769 2313 ft 198 kts 332°
2026-04-23 19:09 -0.37408 -90.25428 2177 ft 186 kts 325°
2026-04-23 19:09 -0.36367 -90.26182 2081 ft 183 kts 323°
2026-04-23 19:09 -0.35360 -90.26941 2008 ft 181 kts 322°
2026-04-23 19:10 -0.34372 -90.27681 2011 ft 181 kts 322°
2026-04-23 19:10 -0.33385 -90.28419 2019 ft 181 kts 322°
2026-04-23 19:10 -0.32375 -90.29169 2016 ft 181 kts 322°
2026-04-23 19:10 -0.31520 -90.30073 2008 ft 178 kts 292°
2026-04-23 19:11 -0.31439 -90.31202 2003 ft 163 kts 253°
2026-04-23 19:11 -0.31826 -90.32255 2005 ft 160 kts 241°
2026-04-23 19:11 -0.32477 -90.33131 2016 ft 157 kts 216°
2026-04-23 19:11 -0.33456 -90.33530 2036 ft 154 kts 180°
2026-04-23 19:12 -0.34158 -90.33440 2042 ft 156 kts 163°
2026-04-23 19:12 -0.35603 -90.33082 2009 ft 164 kts 165°
2026-04-23 19:12 -0.36691 -90.32800 1991 ft 157 kts 160°
2026-04-23 19:12 -0.37630 -90.32227 1852 ft 168 kts 143°
2026-04-23 19:13 -0.38538 -90.31563 1633 ft 151 kts 143°
2026-04-23 19:13 -0.39349 -90.30972 1431 ft 140 kts 143°
2026-04-23 19:13 -0.40115 -90.30418 1243 ft 134 kts 144°
2026-04-23 19:13 -0.40856 -90.29879 1056 ft 130 kts 144°
2026-04-23 19:14 -0.41590 -90.29345 916 ft 131 kts 145°
2026-04-23 19:14 -0.42327 -90.28812 669 ft 130 kts 145°
2026-04-23 19:14 -0.43054 -90.28269 509 ft 131 kts 144°
2026-04-23 19:14 -0.43794 -90.27736 333 ft 130 kts 145°
2026-04-23 19:15 -0.44521 -90.27207 191 ft 126 kts 146°
2026-04-23 19:15 -0.45119 -90.26776 177 ft 78 kts 143°
2026-04-23 19:15 -0.45401 -90.26570 183 ft 28 kts 145°
2026-04-23 19:15 -0.45496 -90.26503 191 ft 18 kts 146°
2026-04-23 19:16 -0.45652 -90.26390 196 ft 32 kts 143°
2026-04-23 19:16 -0.45835 -90.26259 211 ft 33 kts 144°
2026-04-23 19:16 -0.46025 -90.26122 208 ft 33 kts 144°
2026-04-23 19:17 -0.46243 -90.25916 212 ft 4 kts 23°
2026-04-23 19:17 -0.46192 -90.25985 211 ft 18 kts 302°
2026-04-23 19:17 -0.46077 -90.26082 215 ft 24 kts 323°
2026-04-23 19:17 -0.45938 -90.26185 206 ft 26 kts 326°
2026-04-23 19:18 -0.45787 -90.26292 199 ft 27 kts 324°
2026-04-23 19:18 -0.45630 -90.26407 192 ft 29 kts 322°
2026-04-23 19:18 -0.45466 -90.26523 194 ft 29 kts 324°
2026-04-23 19:18 -0.45299 -90.26643 180 ft 29 kts 322°
2026-04-23 19:19 -0.44977 -90.26877 175 ft 28 kts 324°
2026-04-23 19:19 -0.44816 -90.26991 168 ft 28 kts 324°
2026-04-23 19:20 -0.44654 -90.27061 162 ft 3 kts 60°
2026-04-23 19:20 -0.44646 -90.27046 162 ft 2 kts 61°
2026-04-23 19:20 -0.44638 -90.27033 162 ft 0 kts 59°
2026-04-23 19:21 -0.44631 -90.27024 162 ft 5 kts 49°
2026-04-23 19:21 -0.44552 -90.27063 160 ft 3 kts 322°
2026-04-23 19:21 -0.44549 -90.27066 159 ft 0 kts 322°